Home   Weather   Zaragoza   Past weeks
Flag for Spain

Past Weather in Zaragoza, Spain — Yesterday and Last 2 Weeks

Now
91 °F

Sunny.


Feels Like: 89 °F
Forecast: 102 / 70 °F
Wind: 12 mph from East

Location: Zaragoza / Aeropuerto

Current Time: Jul 21, 2019 at 10:12:29 pm

Latest Report: Jul 21, 2019 at 9:30 pm


Visibility: 10 mi

Pressure: 30.04 "Hg

Humidity: 28%

Dew Point: 54 °F

Location of ZaragozaLocation

Past Weather in Zaragoza — Graph

°F

Zaragoza Temperature Yesterday

Maximum temperature yesterday: 100 °F (at 6:00 pm)
Minimum temperature yesterday: 72 °F (at 6:30 am)
Average temperature yesterday: 84 °F

High & Low Weather Summary for the Past Weeks

 TemperatureHumidityPressure
High100 °F (Jul 20, 6:00 pm)94% (Jul 8, 10:00 pm)30.15 "Hg (Jul 8, 10:00 pm)
Low61 °F (Jul 10, 7:00 am)14% (Jul 7, 7:30 pm)29.77 "Hg (Jul 8, 6:30 pm)
Average78 °F50%29.96 "Hg
* Reported Jul 6 9:00 pm — Jul 21 9:00 pm, Zaragoza. Weather by CustomWeather, © 2019

Note: Actual official high and low records may vary slightly from our data, if they occured in-between our weather recording intervals... More about our weather records

Advertising

Zaragoza Weather History for the Previous 24 Hours

Scroll right to see more
 ConditionsComfort  
Time TempWeatherWind HumidityBarometerVisibility
9:00 pm
Sun, Jul 21
93 °FSunny.16 mph24%30.04 "Hg10 mi
8:30 pm95 °FPassing clouds.17 mph23%30.04 "HgN/A
8:00 pm97 °FPassing clouds.16 mph23%30.04 "HgN/A
7:30 pm99 °FSunny.14 mph22%30.04 "Hg10 mi
7:00 pm99 °FSunny.9 mph22%30.04 "Hg10 mi
6:30 pm99 °FPassing clouds.9 mph21%30.04 "HgN/A
6:00 pm99 °FSunny.12 mph21%30.04 "Hg10 mi
5:30 pm99 °FPassing clouds.9 mph22%30.04 "HgN/A
5:00 pm99 °FPassing clouds.13 mph18%30.07 "HgN/A
4:30 pm97 °FPassing clouds.13 mph20%30.07 "HgN/A
4:00 pm97 °FPassing clouds.12 mph25%30.07 "HgN/A
3:30 pm95 °FSunny.12 mph26%30.09 "Hg10 mi
3:00 pm95 °FPassing clouds.13 mph26%30.09 "HgN/A
2:30 pm91 °FPassing clouds.8 mph32%30.09 "HgN/A
2:00 pm88 °FPassing clouds.5 mph40%30.12 "HgN/A
1:30 pm88 °FPassing clouds.5 mph40%30.12 "HgN/A
1:00 pm84 °FSunny.3 mph45%30.12 "Hg10 mi
12:30 pm82 °FSunny.3 mph51%30.12 "Hg10 mi
12:00 pm82 °FSunny.3 mph48%30.15 "Hg10 mi
11:30 am81 °FSunny.1 mph51%30.15 "Hg10 mi
11:00 am79 °FSunny.2 mph54%30.15 "Hg10 mi
10:30 am77 °FPassing clouds.5 mph57%30.15 "HgN/A
10:00 am75 °FPassing clouds.6 mph61%30.15 "HgN/A
9:30 am75 °FPassing clouds.8 mph65%30.15 "HgN/A
9:00 am73 °FPassing clouds.9 mph69%30.15 "HgN/A
8:30 am73 °FPassing clouds.7 mph69%30.15 "HgN/A
8:00 am72 °FPassing clouds.9 mph73%30.12 "HgN/A
7:00 am70 °FSunny.9 mph78%30.12 "Hg10 mi
6:30 am70 °FClear.12 mph78%30.12 "Hg10 mi
6:00 am70 °FClear.13 mph78%30.12 "Hg10 mi
5:30 am70 °FClear.12 mph78%30.12 "Hg10 mi
5:00 am72 °FClear.13 mph73%30.09 "Hg10 mi
4:30 am72 °FClear.13 mph73%30.09 "Hg10 mi
4:00 am72 °FClear.13 mph73%30.09 "Hg10 mi
3:30 am72 °FClear.13 mph73%30.09 "Hg10 mi
3:00 am72 °FClear.13 mph73%30.09 "Hg10 mi
2:30 am73 °FClear.15 mph69%30.09 "Hg10 mi
2:00 am73 °FClear.14 mph69%30.09 "Hg10 mi
1:30 am73 °FClear.13 mph69%30.07 "Hg10 mi
1:00 am75 °FClear.15 mph69%30.07 "Hg10 mi
12:30 am77 °FClear.16 mph61%30.07 "Hg10 mi
12:00 am79 °FPassing clouds.9 mph58%30.04 "HgN/A
11:30 pm
Sat, Jul 20
82 °FClear.6 mph45%30.04 "Hg10 mi
11:00 pm84 °FPassing clouds.7 mph45%30.01 "HgN/A
10:30 pm86 °FPassing clouds.10 mph43%29.98 "HgN/A
10:00 pm88 °FPassing clouds.12 mph38%29.95 "HgN/A
Weather by CustomWeather, © 2019

See weather overview